Weather History for KBEH - January, 2014

Change the Weather History Date:

Sunday, January 26, 2014

  Actual Average Record
Temperature  
Mean Temperature 16 °F -  
Max Temperature 28 °F 31 °F 66 °F (1950)
Min Temperature 5 °F 16 °F -5 °F (1987)
Degree Days  
Heating Degree Days 48    
Moisture  
Dew Point 12 °F    
Average Humidity 82    
Maximum Humidity 93    
Minimum Humidity 63    
Precipitation  
Precipitation 0.03 in - - ()
Sea Level Pressure  
Sea Level Pressure 29.55 in    
Wind  
Wind Speed 12 mph (SW)    
Max Wind Speed 31 mph    
Max Gust Speed 43 mph    
Visibility 4 miles    
Events Fog , Snow    
Averages and records for this station are not official NWS values.
T = Trace of Precipitation, MM = Missing Value Source: NWS Daily Summary

Daily Weather History Graph

Daily Weather History Graph

Search for Another Location

Airport or City:

Trip Planner

Search our weather history database for the weather conditions in past years. The results will help you decide how hot, cold, wet, or windy it might be!

Date:

Astronomy

Jan. 26, 2014 Rise Set
Actual Time 8:04 AM EST 5:52 PM EST
Civil Twilight 7:34 AM EST 6:22 PM EST
Nautical Twilight 7:00 AM EST 6:56 PM EST
Astronomical Twilight 6:27 AM EST 7:29 PM EST
Moon 3:41 AM EST (1/26) 1:41 PM EST (1/26)
Length of Visible Light 10h 48m
Length of Day
9h 48m
Waning Crescent, 24% of the Moon is Illuminated
Jan 26
Waning Crescent
Jan 30
New
Feb 6
First Quarter
Feb 14
Full
Feb 22
Last Quarter

Hourly Weather History & Observations

Time (EST) Temp. Windchill Dew Point Humidity Pressure Visibility Wind Dir Wind Speed Gust Speed Precip Events Conditions
12:33 AM 12.2 °F -0.2 °F 3.2 °F 67% 29.79 in 10.0 mi West 9.2 mph - N/A   Overcast
12:53 AM 12.9 °F 0.7 °F 3.0 °F 65% 29.82 in 10.0 mi West 9.2 mph - N/A   Overcast
1:53 AM 12.9 °F 2.6 °F 6.1 °F 74% 29.78 in 10.0 mi WSW 6.9 mph - N/A   Overcast
2:53 AM 12.0 °F 2.7 °F 5.0 °F 73% 29.74 in 10.0 mi South 5.8 mph - N/A   Overcast
3:15 AM 12.2 °F 2.9 °F 5.0 °F 73% 29.68 in 10.0 mi South 5.8 mph - N/A   Overcast
3:53 AM 10.9 °F -3.4 °F 3.9 °F 73% 29.72 in 10.0 mi South 11.5 mph - N/A   Overcast
4:53 AM 8.1 °F -5.3 °F 1.0 °F 73% 29.72 in 6.0 mi South 9.2 mph - 0.00 in Snow Light Snow
4:59 AM 8.6 °F -2.6 °F 1.4 °F 73% 29.67 in 2.0 mi South 6.9 mph 16.1 mph 0.00 in Snow Light Snow
5:04 AM 6.8 °F -7.8 °F 1.4 °F 79% 29.67 in 1.2 mi South 10.4 mph - 0.00 in Snow Light Snow
5:53 AM 6.1 °F -7.8 °F 3.0 °F 87% 29.68 in 1.2 mi SSE 9.2 mph - 0.00 in Snow Light Snow
6:08 AM 6.8 °F -8.6 °F 1.4 °F 79% 29.63 in 0.8 mi South 11.5 mph - 0.00 in Snow Light Snow
6:16 AM 6.8 °F -6.9 °F 3.2 °F 85% 29.62 in 0.8 mi SSE 9.2 mph - 0.00 in Snow Light Snow
6:42 AM 5.0 °F -10.8 °F 3.2 °F 92% 29.59 in 0.5 mi SE 11.5 mph 18.4 mph 0.00 in Fog , Snow Snow
6:51 AM 5.0 °F -9.1 °F 1.4 °F 85% 29.58 in 0.8 mi SSE 9.2 mph - 0.01 in Snow Light Snow
6:53 AM 5.0 °F -9.1 °F 1.9 °F 87% 29.62 in 0.8 mi SSE 9.2 mph - 0.01 in Snow Light Snow
7:37 AM 5.0 °F -8.1 °F 1.4 °F 85% 29.56 in 1.0 mi SE 8.1 mph - 0.00 in Snow Light Snow
7:53 AM 6.1 °F -6.8 °F 3.0 °F 87% 29.60 in 1.0 mi SE 8.1 mph - 0.01 in Snow Light Snow
8:15 AM 6.8 °F -7.8 °F 3.2 °F 85% 29.55 in 2.0 mi SE 10.4 mph - 0.00 in Snow Light Snow
8:28 AM 6.8 °F -7.8 °F 3.2 °F 85% 29.54 in 1.2 mi SE 10.4 mph - 0.00 in Snow Light Snow
8:37 AM 6.8 °F -8.6 °F 3.2 °F 85% 29.53 in 0.5 mi SE 11.5 mph - 0.00 in Fog , Snow Snow
8:53 AM 6.1 °F -8.7 °F 3.0 °F 87% 29.57 in 0.5 mi SE 10.4 mph - 0.00 in Fog , Snow Snow
9:13 AM 6.8 °F -5.9 °F 3.2 °F 85% 29.54 in 1.0 mi SSE 8.1 mph - 0.01 in Snow Light Snow
9:26 AM 6.8 °F -5.9 °F 3.2 °F 85% 29.54 in 1.8 mi SSE 8.1 mph - 0.01 in Snow Light Snow
9:33 AM 6.8 °F -6.9 °F 3.2 °F 85% 29.53 in 2.0 mi SSE 9.2 mph - 0.01 in Snow Light Snow
9:50 AM 6.8 °F -6.9 °F 3.2 °F 85% 29.50 in 4.0 mi SSE 9.2 mph - 0.01 in   Overcast
9:53 AM 8.1 °F -6.2 °F 5.0 °F 87% 29.53 in 5.0 mi SSE 10.4 mph - 0.01 in   Overcast
10:53 AM 10.9 °F -4.7 °F 7.0 °F 84% 29.49 in 6.0 mi South 13.8 mph 18.4 mph N/A   Overcast
11:53 AM 15.1 °F 1.8 °F 10.0 °F 80% 29.47 in 10.0 mi South 11.5 mph - N/A   Overcast
12:53 PM 19.0 °F 8.2 °F 12.9 °F 77% 29.43 in 10.0 mi SSW 9.2 mph - N/A   Overcast
1:21 PM 19.4 °F 8.6 °F 14.0 °F 80% 29.39 in 10.0 mi SSW 9.2 mph - N/A   Overcast
1:53 PM 24.1 °F 9.4 °F 19.0 °F 81% 29.41 in 10.0 mi WSW 20.7 mph 27.6 mph N/A   Overcast
2:53 PM 25.0 °F 10.6 °F 19.9 °F 81% 29.42 in 9.0 mi West 20.7 mph 27.6 mph N/A   Overcast
3:53 PM 26.1 °F 12.0 °F 21.0 °F 81% 29.45 in 7.0 mi West 20.7 mph 27.6 mph N/A   Overcast
4:53 PM 26.1 °F 12.7 °F 19.9 °F 78% 29.47 in 10.0 mi West 18.4 mph - N/A   Mostly Cloudy
5:38 PM 26.6 °F 14.7 °F 21.2 °F 80% 29.46 in 10.0 mi West 15.0 mph - N/A   Scattered Clouds
5:53 PM 27.0 °F 16.7 °F 21.0 °F 78% 29.49 in 10.0 mi WSW 11.5 mph - N/A   Mostly Cloudy
6:05 PM 26.6 °F 16.8 °F 21.2 °F 80% 29.46 in 10.0 mi WSW 10.4 mph - N/A   Mostly Cloudy
6:53 PM 28.9 °F 17.3 °F 23.0 °F 78% 29.49 in 10.0 mi WSW 16.1 mph 21.9 mph N/A   Overcast
7:21 PM 28.4 °F 15.8 °F 21.2 °F 74% 29.43 in 8.0 mi WSW 18.4 mph 31.1 mph N/A   Overcast
7:53 PM 28.0 °F 14.6 °F 21.9 °F 78% 29.50 in 8.0 mi West 20.7 mph - N/A   Overcast
8:27 PM 28.4 °F 16.2 °F 21.2 °F 74% 29.47 in 6.0 mi West 17.3 mph 24.2 mph 0.00 in   Haze
8:45 PM 26.6 °F 15.7 °F 21.2 °F 80% 29.46 in 1.8 mi WNW 12.7 mph 28.8 mph 0.00 in Snow Light Snow
8:53 PM 26.1 °F 14.0 °F 23.0 °F 88% 29.51 in 0.8 mi WNW 15.0 mph - 0.00 in Snow Light Snow
8:59 PM 26.6 °F 13.1 °F 24.8 °F 93% 29.47 in 0.5 mi WNW 19.6 mph 26.5 mph 0.00 in Fog , Snow Snow
9:08 PM 26.6 °F 12.7 °F 24.8 °F 93% 29.47 in 0.8 mi WNW 20.7 mph 27.6 mph 0.00 in Snow Light Snow
9:17 PM 26.6 °F 13.4 °F 24.8 °F 93% 29.49 in 1.0 mi West 18.4 mph 27.6 mph 0.00 in Snow Light Snow
9:20 PM 26.6 °F 12.4 °F 24.8 °F 93% 29.49 in 0.8 mi West 21.9 mph 27.6 mph 0.00 in Snow Light Snow
9:25 PM 24.8 °F 9.3 °F 23.0 °F 93% 29.50 in 0.5 mi West 24.2 mph 32.2 mph 0.00 in Fog , Snow Snow
9:35 PM 24.8 °F 9.0 °F 21.2 °F 86% 29.50 in 0.5 mi West 25.3 mph 36.8 mph 0.00 in Fog , Snow Snow
9:51 PM 23.0 °F 7.2 °F 19.4 °F 86% 29.51 in 0.8 mi WNW 23.0 mph 35.7 mph 0.00 in Snow Light Snow
9:53 PM 23.0 °F 7.6 °F 19.0 °F 85% 29.54 in 0.8 mi WNW 21.9 mph 35.7 mph 0.00 in Snow Light Snow
10:01 PM 21.2 °F 5.6 °F 19.4 °F 93% 29.51 in 0.5 mi WNW 20.7 mph 33.4 mph 0.00 in Fog , Snow Snow
10:15 PM 21.2 °F 6.0 °F 17.6 °F 86% 29.54 in 0.8 mi WNW 19.6 mph 31.1 mph 0.00 in Snow Light Snow
10:19 PM 21.2 °F 5.6 °F 15.8 °F 80% 29.53 in 1.5 mi WNW 20.7 mph 28.8 mph 0.00 in Snow Light Snow
10:25 PM 21.2 °F 7.8 °F 17.6 °F 86% 29.53 in 0.8 mi WNW 15.0 mph 28.8 mph 0.00 in Snow Light Snow
10:30 PM 21.2 °F 6.8 °F 19.4 °F 93% 29.54 in 0.5 mi West 17.3 mph 27.6 mph 0.00 in Fog , Snow Snow
10:36 PM 21.2 °F 6.8 °F 19.4 °F 93% 29.54 in 0.5 mi West 17.3 mph 27.6 mph 0.00 in Fog , Snow Snow
10:45 PM 21.2 °F 4.5 °F 17.6 °F 86% 29.54 in 1.0 mi West 24.2 mph 35.7 mph 0.00 in Snow Light Snow
10:53 PM 21.0 °F 4.3 °F 14.0 °F 74% 29.58 in 1.2 mi West 24.2 mph 36.8 mph 0.00 in   Overcast
11:05 PM 21.2 °F 3.5 °F 12.2 °F 68% 29.54 in 1.8 mi West 27.6 mph 36.8 mph 0.00 in   Haze
11:14 PM 19.4 °F 0.8 °F 10.4 °F 68% 29.55 in 0.8 mi West 28.8 mph 41.4 mph 0.00 in   Overcast
11:36 PM 19.4 °F 1.8 °F 8.6 °F 63% 29.57 in 1.2 mi WNW 25.3 mph 38.0 mph 0.00 in   Overcast
11:53 PM 17.1 °F -3.0 °F 8.1 °F 68% 29.63 in 1.0 mi West 31.1 mph 42.6 mph 0.00 in   Mostly Cloudy